Regional Weather Roundup
Issued by NWS

Home | Current Version | Previous Version | Text Only | Print | Product List | Glossary On
Versions: 1 2 3 4 5 6 7 8 9 10 11 12 13 14 15 16 17 18 19 20 21 22 23 24 25 26 27 28 29 30 31 32 33 34 35 36 37 38 39 40 41 42 43 44 45 46 47 48 49 50
000
ASUS43 KDMX 260807
RWRIA

WEATHER ROUNDUP FOR IOWA
NATIONAL WEATHER SERVICE DES MOINES IA
300 AM CDT TUE MAY 26 2015

NOTE: "FAIR" INDICATES FEW OR NO CLOUDS BELOW 12,000 FEET WITH NO
SIGNIFICANT WEATHER AND/OR OBSTRUCTIONS TO VISIBILITY.

* - THESE STATIONS ARE NOT NWS STATIONS...THUS NOT UNDER NWS
QUALITY CONTROL.  THEY ALSO DO NOT REPORT WEATHER SUCH
AS PRECIPITATION OR FOG.

IAZ001>003-012>014-020>022-031>034-043>046-260900-
   NORTHWEST IOWA

CITY           SKY/WX    TMP DP  RH WIND       PRES   REMARKS
CARROLL *      MOCLDY    61  57  88 SE6       29.78R
CHEROKEE *     CLOUDY    61  59  94 S3        29.78F
DENISON *      PTCLDY    61  61 100 W10       29.78R
LE MARS *      LGT RAIN  63  61  94 W9G16     29.78F
ORANGE CITY *  CLOUDY    61  57  88 N6        29.79S
SHELDON *      CLOUDY    61  61 100 CALM      29.78R
SIOUX CITY     LGT RAIN  62  59  90 S7        29.79R
SPENCER        CLOUDY    61  58  90 W3        29.79S
STORM LAKE *   CLOUDY    61  57  88 SW8       29.80R
$$

IAZ055>058-069>071-079>083-090>094-260900-
   SOUTHWEST IOWA

CITY           SKY/WX    TMP DP  RH WIND       PRES   REMARKS
ATLANTIC *     MOCLDY    63  57  82 S9        29.79R
AUDUBON *      PTCLDY    61  55  82 CALM      29.79S
COUNCIL BLFS * MOCLDY    61  61 100 S7        29.79R
CRESTON *      RAIN      61  61 100 S15       29.84R
HARLAN  *      CLEAR     61  61 100 CALM      29.81S
LAMONI         LGT RAIN  63  59  87 W6        29.82F
RED OAK *      CLOUDY    63  59  88 S9        29.82R
SHENANDOAH *   CLOUDY    61  61 100 S13       29.84R
$$

IAZ047>049-059>061-072>074-084-260900-
   CENTRAL IOWA

CITY           SKY/WX    TMP DP  RH WIND       PRES   REMARKS
AMES           MOCLDY    59  57  93 SE6       29.80S
ANKENY *       MOCLDY    61  59  94 CALM      29.78F
CHARITON *       N/A     63  59  88 SE7       29.80F
DES MOINES     LGT RAIN  63  59  87 E6        29.77F
GRINNELL*      MOCLDY    61  57  88 E7        29.82F
KNOXVILLE *    CLOUDY    63  59  88 E6        29.78F
MARSHALLTOWN   PTCLDY    60  56  86 E10       29.80F
PELLA *        CLOUDY    63  61  94 SE6       29.81F
PERRY *          N/A     61  59  94 S5        29.79S
$$

IAZ004>006-015-016-023>025-035-036-260900-
   NORTH CENTRAL IOWA

CITY           SKY/WX    TMP DP  RH WIND       PRES   REMARKS
ALGONA *       CLEAR     61 N/A N/A CALM      29.81R
CLARION *      CLEAR     61  59  94 SE5       29.78R
ESTHERVILLE    CLOUDY    60  58  92 NE13      29.79R
FORT DODGE *   CLOUDY    57  54  88 CALM      29.78R
MASON CITY     CLOUDY    58  56  93 S3        29.80F
FOREST CITY *  CLEAR     55  55 100 CALM      29.79R
IOWA FALLS *     N/A     61  57  88 SE9       29.81F
$$

IAZ007>011-017>019-026>030-037>042-050>054-066-260900-
   NORTHEAST IOWA

CITY           SKY/WX    TMP DP  RH WIND       PRES   REMARKS
CEDAR RAPIDS   MOCLDY    66  65  96 E6        29.84S
CHARLES CITY * CLOUDY    61  61 100 SE7       29.81S
CLINTON *      PTCLDY    66  63  88 S9        29.90S
DECORAH *      CLEAR     61  61 100 SE6       29.80F
DUBUQUE        PTCLDY    65  62  90 S5        29.86F
MONTICELLO *   CLOUDY    68  66  94 CALM      29.86S
OELWEIN *      CLEAR     59  59 100 SE7       29.84F
WATERLOO       MOCLDY    61  59  93 SE7       29.81F
$$

IAZ064-065-067-068-078-260900-
   EAST CENTRAL IOWA

CITY           SKY/WX    TMP DP  RH WIND       PRES   REMARKS
DAVENPORT      PTCLDY    70  65  84 S13       29.87F
IOWA CITY      MOCLDY    68  64  87 S5        29.86F
MT. PLEASANT * CLOUDY    68  66  94 SE8       29.84F
MUSCATINE *    CLEAR     68  66  94 SE6       29.85F
QUAD CITIES    PTCLDY    70  65  84 S9        29.86S
$$

IAZ062-063-075>077-085>089-095>099-260900-
   SOUTHEAST IOWA

CITY           SKY/WX    TMP DP  RH WIND       PRES   REMARKS
BURLINGTON     CLOUDY    70  67  90 S7        29.84F
FAIRFIELD *    PTCLDY    68  63  83 SE5       29.83F
FORT MADISON * CLEAR     70  66  88 CALM      29.85F
KEOKUK *       CLEAR     70  66  88 SE8       29.83F
OSKALOOSA *      N/A     63  59  88 E6        29.82F
CENTERVILLE *  PTCLDY    64  64 100 E7        29.81F
OTTUMWA        CLOUDY    64  59  83 E6        29.82F
WASHINGTON *   CLEAR     68  64  88 S6        29.85F
$$

ABBREVIATIONS USED IN REMARKS
   TC - TEMPERATURES IN CELSIUS
  WCI - WIND CHILL INDEX
   HX - HEAT INDEX
  VSB - VISIBILITY
$$




USA.gov is the U.S. government's official web portal to all federal, state and local government web resources and services.